WetterOnline ( http://www.wetteronline.de )

Wetter aktuell Oschatz

Aktuelles Wetter: Oschatz (152m)

6-stündlich | Neueste Meldungen
Ortszeit Temperatur Wetter
Mo, 23.07. 2:00 19.2° C bedeckt
So, 22.07. 20:00 24.8° C bedeckt
So, 22.07. 14:00 24.9° C wolkig
So, 22.07. 8:00 19.9° C bewölkt
So, 22.07. 2:00 18.6° C bedeckt
Sa, 21.07. 20:00 24.6° C wolkig
Sa, 21.07. 14:00 27.5° C bedeckt
Sa, 21.07. 8:00 18.3° C wolkenlos
Ortszeit Temperatur Wetter
Mo, 23.07. 6:00 17.8° C bedeckt
Mo, 23.07. 5:50 17.8° C bedeckt
Mo, 23.07. 5:40 17.9° C bedeckt
Mo, 23.07. 5:30 18.1° C bewölkt
Mo, 23.07. 5:20 18.1° C bewölkt
Mo, 23.07. 5:10 18.5° C bedeckt
Mo, 23.07. 5:00 18.6° C bewölkt
Mo, 23.07. 4:30 18.6° C fast wolkenlos
Mo, 23.07. 4:00 18.1° C wolkig
Mo, 23.07. 3:30 18.0° C bedeckt
Mo, 23.07. 3:00 19.2° C bedeckt
Ortszeit Relative Feuchte Sichtweite
Mo, 23.07. 2:00 76% 21 km
So, 22.07. 20:00 44% 40 km
So, 22.07. 14:00 51% 22 km
So, 22.07. 8:00 77% 11 km
So, 22.07. 2:00 77% 24 km
Sa, 21.07. 20:00 49% 40 km
Sa, 21.07. 14:00 32% 30 km
Sa, 21.07. 8:00 60% 14 km
Ortszeit Relative Feuchte Sichtweite
Mo, 23.07. 6:00 79% 15 km
Mo, 23.07. 5:50 79% -
Mo, 23.07. 5:40 79% -
Mo, 23.07. 5:30 79% 16 km
Mo, 23.07. 5:20 79% -
Mo, 23.07. 5:10 77% -
Mo, 23.07. 5:00 77% 17 km
Mo, 23.07. 4:30 77% 18 km
Mo, 23.07. 4:00 82% 12 km
Mo, 23.07. 3:30 81% 15 km
Mo, 23.07. 3:00 76% 19 km
Ortszeit Niederschlagsmenge Niederschlagsart
Mo, 23.07. 2:00 0.1 l/m2 in 6 Std. Regen
So, 22.07. 20:00 0.1 l/m2 in 12 Std. -
So, 22.07. 14:00 0.1 l/m2 in 6 Std. Regen
So, 22.07. 8:00 0.0 l/m2 in 12 Std. -
So, 22.07. 2:00 0.0 l/m2 in 6 Std. -
Sa, 21.07. 20:00 0.0 l/m2 in 12 Std. -
Sa, 21.07. 14:00 0.0 l/m2 in 6 Std. -
Sa, 21.07. 8:00 0.0 l/m2 in 12 Std. -
Ortszeit Niederschlagsmenge Niederschlagsart
Mo, 23.07. 6:00 0.0 l/m2 in 1 Std. -
Mo, 23.07. 5:50 keine Meldung -
Mo, 23.07. 5:40 keine Meldung -
Mo, 23.07. 5:30 0.0 l/m2 in 1 Std. -
Mo, 23.07. 5:20 keine Meldung -
Mo, 23.07. 5:10 keine Meldung -
Mo, 23.07. 5:00 0.0 l/m2 in 1 Std. -
Mo, 23.07. 4:30 0.0 l/m2 in 1 Std. -
Mo, 23.07. 4:00 0.0 l/m2 in 1 Std. -
Mo, 23.07. 3:30 0.0 l/m2 in 1 Std. -
Mo, 23.07. 3:00 0.0 l/m2 in 1 Std. -
Ortszeit Stärke Spitze Richtung
km/h Bft. km/h Grad Sektor
Mo, 23.07. 2:00 7 2 18 230° SW
So, 22.07. 20:00 9 2 31 270° W
So, 22.07. 14:00 18 3 25 310° NW
So, 22.07. 8:00 4 1 11 280° W
So, 22.07. 2:00 2 1 19 230° SW
Sa, 21.07. 20:00 9 2 28 290° W
Sa, 21.07. 14:00 15 3 30 50° NO
Sa, 21.07. 8:00 7 2 14 70° O
Ortszeit Stärke Spitze Richtung
km/h Bft. km/h Grad Sektor
Mo, 23.07. 6:00 7 2 20 320° NW
Mo, 23.07. 5:50 7 2 - 320° NW
Mo, 23.07. 5:40 9 2 - 310° NW
Mo, 23.07. 5:30 9 2 20 310° NW
Mo, 23.07. 5:20 9 2 - 310° NW
Mo, 23.07. 5:10 11 2 - 310° NW
Mo, 23.07. 5:00 13 3 19 310° NW
Mo, 23.07. 4:30 11 2 18 300° NW
Mo, 23.07. 4:00 7 2 11 290° W
Mo, 23.07. 3:30 9 2 11 310° NW
Mo, 23.07. 3:00 4 1 7 350° N
Ortszeit Untergrenze Bedeckung Gattung
total tief tief mittel hoch
Mo, 23.07. 2:00 4200 m 8/8 8/8 - - -
So, 22.07. 20:00 3000 m 8/8 8/8 - - -
So, 22.07. 14:00 1290 m 8/8 2/8 - - -
So, 22.07. 8:00 3300 m 7/8 7/8 - - -
So, 22.07. 2:00 1230 m 8/8 8/8 - - -
Sa, 21.07. 20:00 2100 m 7/8 1/8 - - -
Sa, 21.07. 14:00 5400 m 8/8 8/8 - - -
Sa, 21.07. 8:00 - 0/8 0/8 - - -
Ortszeit Bedeckungsgrad in Achtel und Wolkenuntergrenze
Mo, 23.07. 6:00 8
Mo, 23.07. 5:50 9 9 9
Mo, 23.07. 5:40 9 9 9
Mo, 23.07. 5:30 7(4500m)
Mo, 23.07. 5:20 7(4500m)
Mo, 23.07. 5:10 8(4500m)
Mo, 23.07. 5:00 7(4500m)
Mo, 23.07. 4:30 1(3600m)
Mo, 23.07. 4:00 2(2700m) 3(3900m) 6(4500m)
Mo, 23.07. 3:30 8(4500m) 8(4500m)
Mo, 23.07. 3:00 8(4200m) 8(4500m)
Ortszeit Luftdruck NN (hPa) Tendenz (hPa in 3 Std.)
Mo, 23.07. 2:00 1015 0,0
So, 22.07. 20:00 1013 + 0,3
So, 22.07. 14:00 1013 + 0,3
So, 22.07. 8:00 1013 + 0,6
So, 22.07. 2:00 1012 + 0,2
Sa, 21.07. 20:00 1011 - 0,1
Sa, 21.07. 14:00 1011 - 0,7
Sa, 21.07. 8:00 1012 - 0,4
Ortszeit Luftdruck NN (hPa) Tendenz (hPa in 3 Std.)
Mo, 23.07. 6:00 1016 + 0,7
Mo, 23.07. 5:50 1016 keine Meldung
Mo, 23.07. 5:40 1016 keine Meldung
Mo, 23.07. 5:30 1016 + 0,7
Mo, 23.07. 5:20 1016 keine Meldung
Mo, 23.07. 5:10 1015 keine Meldung
Mo, 23.07. 5:00 1015 + 0,6
Mo, 23.07. 4:30 1015 + 0,3
Mo, 23.07. 4:00 1015 + 0,3
Mo, 23.07. 3:30 1015 + 0,1
Mo, 23.07. 3:00 1015 0,0
Ortszeit Schneehöhe (cm)
Mo, 23.07. 2:00 -
So, 22.07. 20:00 -
So, 22.07. 14:00 -
So, 22.07. 8:00 -
So, 22.07. 2:00 -
Sa, 21.07. 20:00 -
Sa, 21.07. 14:00 -
Sa, 21.07. 8:00 -
Ortszeit Schneehöhe (cm)
Mo, 23.07. 6:00 -
Mo, 23.07. 5:50 -
Mo, 23.07. 5:40 -
Mo, 23.07. 5:30 -
Mo, 23.07. 5:20 -
Mo, 23.07. 5:10 -
Mo, 23.07. 5:00 -
Mo, 23.07. 4:30 -
Mo, 23.07. 4:00 -
Mo, 23.07. 3:30 -
Mo, 23.07. 3:00 -
Link zu dieser Seite / Seite empfehlen

Das Wetter in ...